Location: Ch�tonnaye
(46.7545°N, 6.9380°E)
Time: 20:15:31
(UTC+00:00)

Daily predictions for brighter satellites

Satellite Brightness Start Highest point End
(mag) Time Altitude Azimuth Time Altitude Azimuth Time Altitude Azimuth
SL-16 R/B 4.0 16:13:15 10° WSW 16:17:56 26° NW 16:22:37 10° N
NOAA 12 4.5 16:15:12 10° SE 16:20:13 44° ENE 16:25:15 10° N
Cosmos 2237 Rocket 3.2 16:16:02 10° SSE 16:20:38 27° ESE 16:25:15 10° NE
ISS -2.1 16:20:10 10° SSW 16:22:51 22° SE 16:25:33 10° E
Cosmos 1869 3.3 16:19:57 10° S 16:23:58 84° E 16:28:05 10° N
USA 267 3.6 16:21:02 10° E 16:27:13 48° NNE 16:33:26 10° NW
Cosmos 2322 4.0 16:22:51 10° SSW 16:28:30 72° WNW 16:34:13 10° NNE
Cosmos 540 Rocket 3.5 16:23:52 10° SSW 16:29:00 86° WNW 16:34:10 10° NNE
COSMOS 2455 4.3 16:23:38 10° NW 16:29:19 44° WSW 16:34:58 10° S
CZ-4B R/B 3.0 16:27:41 10° ENE 16:29:31 15° E 16:31:21 10° SE
Cosmos 2369 Rocket 4.1 16:30:50 10° NNE 16:32:20 11° NNE 16:33:48 10° NE
Okean-O 4.3 16:32:12 10° E 16:34:15 13° ENE 16:36:18 10° NNE
NOSS 2-1 (E) 4.3 16:29:15 10° NW 16:34:19 70° NE 16:41:30 10° SE
AQUARIUS 4.4 16:30:09 10° SE 16:34:28 48° ENE 16:38:49 10° N
Meteor 2-2 Rocket 4.4 16:29:21 10° S 16:35:16 67° E 16:41:07 10° NNE
Cosmos 841 Rocket 3.7 16:32:04 10° SSW 16:37:18 76° WNW 16:42:33 10° NNE
COSMO-SKYMED 1 4.1 16:34:50 10° NE 16:37:39 17° E 16:40:27 10° SE
Cosmos 1980 4.3 16:33:09 10° S 16:38:22 39° ESE 16:43:37 10° NE
Cosmos 1743 Rocket 3.6 16:33:56 10° N 16:38:25 67° E 16:42:51 10° SSE
CORIOLIS 4.3 16:33:33 10° SSE 16:38:48 56° ENE 16:44:07 10° N
Envisat 3.1 16:34:31 10° SSE 16:39:35 82° WSW 16:44:43 10° NNW
H-2A R/B 2.8 16:38:08 10° S 16:42:30 77° WSW 16:46:45 10° NNW
H-2A R/B 3.9 16:40:24 10° S 16:44:04 47° W 16:47:49 10° NNW
Cosmos 1408 Rocket 4.4 16:40:34 10° NNW 16:44:53 56° W 16:49:08 10° S
H-2A R/B 3.6 16:43:34 10° E 16:46:19 14° NE 16:49:02 10° NNE
Okean O Rocket 1.5 16:42:36 10° SSE 16:46:54 66° ENE 16:51:15 10° N
Nadezhda 1 Rocket 4.1 16:40:57 10° S 16:47:10 63° E 16:53:29 10° NNE
Sich 1 3.6 16:46:12 10° N 16:50:15 34° ENE 16:54:14 10° SE
Cosmos 1842 Rocket 3.8 16:46:45 10° SSW 16:51:03 71° W 16:55:23 10° N
Cosmos 2292 4.5 16:50:36 10° S 16:53:33 50° E 16:56:58 10° NNE
Aureole 2 Rocket 4.0 16:51:34 10° NW 16:54:03 31° WSW 16:56:37 10° S
Cosmos 405 Rocket 2.7 16:50:46 10° N 16:54:40 87° ENE 16:58:37 10° S
Cosmos 2154 Rocket 4.0 16:51:32 10° N 16:57:54 80° E 17:04:15 10° SSE
Cosmos 1805 Rocket 3.6 16:54:18 10° N 16:58:43 55° ENE 17:03:04 10° SSE
YAOGAN 6 3.5 16:56:17 10° S 16:59:53 54° W 17:03:28 10° NNW
Cosmos 1814 Rocket 4.5 16:54:53 10° SSW 17:00:11 65° WNW 17:05:29 10° NNE
Cosmos 1666 Rocket 4.2 17:00:43 10° N 17:04:40 31° ENE 17:08:37 10° SE
Cosmos 2341 Rocket 4.1 16:59:08 10° N 17:05:14 51° ENE 17:11:21 10° SSE
SMAP 3.3 17:01:01 10° S 17:05:40 75° WSW 17:10:21 10° NNW
Cosmos 1943 Rocket 3.4 17:01:48 10° N 17:06:01 22° NE 17:07:55 18° ENE
Helios 1A Rocket 4.0 17:03:30 10° ESE 17:06:38 22° ENE 17:09:47 10° NNE
Cosmos 2322 Rocket 4.5 17:03:34 10° WNW 17:07:01 16° NW 17:10:30 10° N
USA 281 3.5 17:01:05 10° ESE 17:07:14 44° NE 17:13:24 10° NNW
SL-16 R/B 3.3 17:03:24 10° SSE 17:07:46 23° ESE 17:09:55 19° ENE
Cosmos 1151 Rocket 4.2 17:05:46 10° SE 17:09:05 22° E 17:09:51 21° ENE
ARGOS 4.4 17:15:45 19° NE 17:15:45 19° NE 17:19:19 10° NNE
NOSS 0 Rocket 4.0 17:11:57 10° SSW 17:18:13 90° NW 17:24:30 10° NNE
Feng Yun 1-1 Rocket 4.3 17:13:16 10° SSE 17:19:01 68° ENE 17:24:42 10° N
Cosmos 1606 2.7 17:15:34 10° S 17:19:23 56° E 17:23:04 11° NNE
Cosmos 389 Rocket 2.6 17:16:08 10° S 17:19:27 48° E 17:21:16 23° NNE
CREW DRAGON DEMO-1 DEB 3.4 17:17:04 10° WNW 17:19:55 39° NNE 17:20:28 35° NE
Cosmos 2285 Rocket 4.4 17:14:28 10° N 17:20:30 40° ENE 17:26:26 10° SE
CZ-2C R/B 3.5 17:16:08 10° SE 17:20:46 35° ENE 17:25:12 10° N
Cosmos 2333 Rocket 3.5 17:16:16 10° WSW 17:21:33 38° NW 17:26:50 10° NNE
H-2A R/B 3.2 17:21:01 10° N 17:24:56 42° WNW 17:28:54 10° SW
Cosmos 1867 4.1 17:20:15 10° S 17:25:13 38° ESE 17:27:32 26° ENE
SKYMED 2 3.7 17:22:23 13° NNE 17:26:05 49° E 17:30:17 10° S
Meteor 1-20 Rocket 4.4 17:20:45 10° N 17:26:27 50° ENE 17:32:07 10° SSE
COSMOS 2428 3.8 17:21:17 10° SW 17:26:45 43° NW 17:32:13 10° NNE
Cosmos 1818 4.0 17:26:55 10° NW 17:32:20 65° WSW 17:37:44 10° SSE
SL-8 Rocket 3.9 17:27:02 10° N 17:33:12 62° ENE 17:39:24 10° SSE
Lacrosse 5 rocket 3.2 17:32:12 10° SSE 17:33:15 13° SE 17:33:15 13° SE
Cosmos 2278 Rocket 3.1 17:29:55 10° NW 17:35:25 51° WSW 17:40:52 10° S
Cosmos 1633 Rocket 3.1 17:32:06 10° N 17:36:26 54° ENE 17:40:42 10° SSE
USA 215 3.2 17:32:16 22° NE 17:36:49 87° SE 17:43:23 10° SW
Cosmos 2181 Rocket 4.1 17:31:02 10° S 17:37:19 59° E 17:43:36 10° NNE
CZ-4 R/B 1.6 17:37:52 42° E 17:38:16 43° ENE 17:42:03 10° N
EO 1 Delta rocket 4.4 17:33:28 10° NNE 17:38:32 52° E 17:44:46 10° S
SAR-Lupe-4 3.4 17:40:59 41° NNE 17:42:06 70° ESE 17:45:39 10° S
Meteor 1-25 Rocket 4.1 17:37:12 10° N 17:42:46 64° ENE 17:48:22 10° SSE
Cosmos 1959 Rocket 4.5 17:36:30 10° N 17:42:49 61° ENE 17:49:05 10° SSE
CZ-2D R/B 3.0 17:42:05 10° SSE 17:45:51 77° ENE 17:49:42 10° N
BREEZE-M DEB (TANK) 3.1 17:47:16 10° WSW 17:48:48 34° SW 17:48:48 34° SW
Cosmos 1125 Rocket 4.4 17:45:27 10° NNW 17:50:28 49° WSW 17:55:27 10° S
Abrixas rocket 3.8 17:48:53 10° W 17:51:09 23° SSW 17:51:40 21° SSW
IRS-1C Rocket 4.1 17:46:03 10° SSE 17:51:20 85° WSW 17:56:40 10° NNW
Cosmos 1356 4.0 17:48:38 10° NNW 17:52:01 57° W 17:55:22 10° S
Cosmos 1689 Rocket 4.0 17:53:50 22° S 17:53:50 22° S 17:55:00 10° S
Cosmos 1939 Rocket 3.2 17:48:57 10° S 17:52:46 62° W 17:56:38 10° NNW
ERS-2 2.9 17:50:53 15° N 17:53:46 50° WNW 17:57:19 10° SSW
CSL-04 Debris 4.4 17:51:53 33° ESE 17:53:46 46° ENE 17:59:00 10° N
Cosmos 44 3.6 17:49:07 10° NNW 17:54:17 54° NE 17:55:25 45° E
DEBRIS 4.0 17:38:50 10° W 17:54:35 72° N 17:56:23 42° ENE
Cosmos 2219 Rocket 4.1 17:52:19 10° WSW 17:56:54 25° NW 18:01:31 10° N
SAR-Lupe-1 4.1 17:58:34 55° N 17:59:16 76° WNW 18:02:50 10° SSW
ISS -3.4 17:56:02 10° WSW 17:59:04 65° WNW 17:59:04 65° WNW
CZ-4B R/B 3.2 18:00:04 16° NNW 18:01:50 28° WNW 18:04:30 10° SW
Cosmos 2237 Rocket 2.9 17:58:52 10° SW 18:04:21 53° WNW 18:08:37 17° NNE
YAOGAN 1 2.4 18:03:52 63° SE 18:04:24 73° ENE 18:08:45 10° N
USA 267 3.3 18:05:49 24° SE 18:10:01 78° SW 18:16:35 10° NW
Okean-O 2.6 18:05:39 10° SSE 18:10:05 83° WSW 18:14:33 10° NNW
COSMO-SKYMED 1 3.3 18:10:59 17° N 18:14:08 53° WNW 18:18:21 10° SSW
SL-24 R/B 4.3 18:13:04 34° N 18:14:41 61° WNW 18:18:27 10° SSW
USA 81 4.4 18:11:16 10° N 18:16:31 65° W 18:21:43 10° S
Cosmos 2218 Rocket 4.0 18:10:47 10° NNW 18:16:56 77° W 18:23:04 10° S
Cosmos 2369 Rocket 3.0 18:12:38 10° NNW 18:16:39 36° NNE 18:16:39 36° NNE
CSL-04 Rocket 3.5 18:18:44 67° ENE 18:18:47 67° ENE 18:24:06 10° N
H-2A R/B 1.9 18:23:36 51° SSE 18:24:59 84° ENE 18:30:14 10° NNW
Cosmos 2366 rocket 4.3 18:23:14 10° NNW 18:29:22 65° W 18:35:27 10° S
Meteor 1-14 Rocket 4.2 18:29:45 10° NNW 18:35:43 88° WSW 18:38:09 38° S
Cosmos 773 Rocket 4.2 18:32:16 10° SSW 18:36:41 64° SSW 18:36:41 64° SSW
Cosmos 2297 4.3 18:35:55 10° NW 18:41:28 56° WSW 18:44:22 28° S
Helios 1A Rocket 4.4 18:39:39 22° SSW 18:41:37 36° W 18:45:21 10° NNW
Cosmos 1151 Rocket 4.4 18:42:27 10° SW 18:46:24 36° WNW 18:46:45 35° WNW
Cosmos 1943 Rocket 2.4 18:44:51 10° NNW 18:49:30 62° NW 18:49:30 62° NW
SL-16 R/B 2.6 18:45:50 10° SW 18:51:25 60° WNW 18:51:51 58° NW
USA 281 4.2 18:45:33 10° S 18:51:43 43° WSW 18:57:57 10° NW
MOS 1 Rocket 4.2 18:53:31 45° NNW 18:54:44 55° WNW 19:00:02 10° SSW
ARGOS 4.1 18:57:16 40° NNW 18:57:16 40° NNW 19:00:44 10° NNW
CZ-4 R/B 4.1 19:13:54 17° W 19:13:54 17° W 19:16:09 10° NW
USA 215 3.9 19:19:37 45° NNW 19:19:37 45° NNW 19:25:39 10° W
